LB9GJ Weather Reports


Display with metric or nautical units.
time (UTC)temp
F
wind
direction
speed
MPH
gust
MPH
rain 1hr
in
rain 24hr
in
rain mn
in
humidity
%
barometer
mb
20260902094502 52 233 6.0 0.0 0.00 0.00 0.00 59 1010.6
20260902093002 59 233 7.0 0.0 0.00 0.00 0.00 59 1010.6
20260902091502 60 248 8.0 0.0 0.00 0.00 0.00 59 1010.6
20260902090002 60 248 10.0 0.0 0.00 0.00 0.00 59 1010.6
20260902084502 49 248 7.0 0.0 0.00 0.00 0.00 59 1010.6
20260902083002 52 248 6.0 0.0 0.00 0.00 0.00 59 1010.6
20260902081502 54 248 7.0 0.0 0.00 0.00 0.00 59 1010.6
20260902080001 55 273 8.0 0.0 0.00 0.00 0.00 59 1010.6
20260902074502 58 273 8.0 0.0 0.00 0.00 0.00 59 1010.6
20260902073001 55 273 5.0 0.0 0.00 0.00 0.00 59 1010.6
20260902071502 58 273 6.0 0.0 0.00 0.00 0.00 59 1010.6
20260902070002 56 273 6.0 0.0 0.00 0.00 0.00 59 1010.6
20260902064502 53 273 6.0 0.0 0.00 0.00 0.00 59 1010.6
20260902063002 50 266 3.0 0.0 0.00 0.00 0.00 59 1010.6
20260902061502 51 266 2.0 0.0 0.00 0.00 0.00 59 1010.6
20260902060003 49 266 2.0 0.0 0.00 0.00 0.00 59 1010.6
20260902054502 46 266 7.0 0.0 0.00 0.00 0.00 59 1010.6
20260902053003 44 266 5.0 0.0 0.00 0.00 0.00 59 1010.6
20260902051502 41 266 6.0 0.0 0.00 0.00 0.00 59 1010.6
20260902050004 42 233 7.0 0.0 0.00 0.00 0.00 59 1010.6
20260902044502 41 233 4.0 0.0 0.00 0.00 0.00 59 1010.6
20260902043002 41 233 7.0 0.0 0.00 0.00 0.00 59 1010.6
20260902041502 41 233 8.0 0.0 0.00 0.00 0.00 59 1010.6
20260902040003 40 233 4.0 0.0 0.00 0.00 0.00 59 1010.6
20260902034502 41 242 6.0 0.0 0.00 0.00 0.00 59 1010.6
20260902033003 41 242 0.0 0.0 0.00 0.00 0.00 59 1010.6
20260902031502 44 242 7.0 0.0 0.00 0.00 0.00 59 1010.6
20260902030002 45 242 7.0 0.0 0.00 0.00 0.00 59 1010.6
20260902024502 45 242 3.0 0.0 0.00 0.00 0.00 59 1010.6
20260902023002 44 242 0.0 0.0 0.00 0.00 0.00 59 1010.6
20260902021501 43 246 0.0 0.0 0.00 0.00 0.00 59 1010.6
20260902020002 43 246 0.0 0.0 0.00 0.00 0.00 59 1010.6
20260902014502 42 246 0.0 0.0 0.00 0.00 0.00 59 1010.6
20260902013003 43 246 0.0 0.0 0.00 0.00 0.00 59 1010.6
20260902011502 44 246 1.0 0.0 0.00 0.00 0.00 59 1010.6
20260902010002 45 246 0.0 0.0 0.00 0.00 0.00 59 1010.6
20260902004502 45 268 3.0 0.0 0.00 0.00 0.00 59 1010.6
20260902003002 45 268 1.0 0.0 0.00 0.00 0.00 59 1010.6
20260902001502 45 268 0.0 0.0 0.00 0.00 0.00 59 1010.6
20260902000001 44 268 0.0 0.0 0.00 0.00 0.00 59 1010.6
20260901234502 43 268 0.0 0.0 0.00 0.00 0.00 59 1010.6
20260901233002 45 264 1.0 0.0 0.00 0.00 0.00 59 1010.6
20260901231502 44 264 0.0 0.0 0.00 0.00 0.00 59 1010.6
20260901230002 45 264 0.0 0.0 0.00 0.00 0.00 59 1010.6
20260901224502 45 264 0.0 0.0 0.00 0.00 0.00 59 1010.6
20260901223002 45 264 0.0 0.0 0.00 0.00 0.00 59 1010.6
20260901221502 44 264 0.0 0.0 0.00 0.00 0.00 59 1010.6
20260901220002 43 276 0.0 0.0 0.00 0.00 0.00 59 1010.6
20260901214502 45 276 0.0 0.0 0.00 0.00 0.00 59 1010.6
20260901213001 45 276 0.0 0.0 0.00 0.00 0.00 59 1010.6
20260901211502 45 276 0.0 0.0 0.00 0.00 0.00 59 1010.6
20260901210002 45 276 0.0 0.0 0.00 0.00 0.00 59 1010.6
20260901204502 46 160 0.0 0.0 0.00 0.00 0.00 59 1010.6
20260901203001 48 160 0.0 0.0 0.00 0.00 0.00 59 1010.6
20260901201502 47 160 0.0 0.0 0.00 0.00 0.00 59 1010.6
20260901200001 47 160 1.0 0.0 0.00 0.00 0.00 59 1010.6
20260901194502 47 160 0.0 0.0 0.00 0.00 0.00 59 1010.6
20260901193001 46 160 0.0 0.0 0.00 0.00 0.00 59 1010.6
20260901191502 47 220 0.0 0.0 0.00 0.00 0.00 59 1010.6
20260901190001 47 220 0.0 0.0 0.00 0.00 0.00 59 1010.6
20260901184502 48 220 0.0 0.0 0.00 0.00 0.00 59 1010.6
20260901183001 47 220 0.0 0.0 0.00 0.00 0.00 59 1010.6
20260901181502 49 220 0.0 0.0 0.00 0.00 0.00 59 1010.6
20260901180001 49 220 0.0 0.0 0.00 0.00 0.00 59 1010.6
20260901174502 51 150 0.0 0.0 0.00 0.00 0.00 59 1010.6
20260901173002 51 150 0.0 0.0 0.00 0.00 0.00 59 1010.6
20260901171502 52 150 2.0 0.0 0.00 0.00 0.00 59 1010.6
20260901170002 53 150 0.0 0.0 0.00 0.00 0.00 59 1010.6
20260901164502 54 150 1.0 0.0 0.00 0.00 0.00 59 1010.6
20260901163003 54 144 2.0 0.0 0.00 0.00 0.00 59 1010.6
20260901161502 55 144 0.0 0.0 0.00 0.00 0.00 59 1010.6
20260901160003 56 144 1.0 0.0 0.00 0.00 0.00 59 1010.6
20260901154502 57 144 0.0 0.0 0.00 0.00 0.00 59 1010.6
20260901153003 59 144 3.0 0.0 0.00 0.00 0.00 59 1010.6
20260901151502 59 144 3.0 0.0 0.00 0.00 0.00 59 1010.6
20260901150002 58 165 5.0 0.0 0.00 0.00 0.00 59 1010.6
20260901144502 59 165 6.0 0.0 0.00 0.00 0.00 59 1010.6
20260901143003 58 165 5.0 0.0 0.00 0.00 0.00 59 1010.6
20260901141502 65 165 6.0 0.0 0.00 0.00 0.00 59 1010.6
20260901140003 60 165 5.0 0.0 0.00 0.00 0.00 59 1010.6
20260901134502 63 165 6.0 0.0 0.00 0.00 0.00 59 1010.6
20260901133002 60 184 4.0 0.0 0.00 0.00 0.00 59 1010.6
20260901131502 64 184 6.0 0.0 0.00 0.00 0.00 59 1010.6
20260901130002 60 184 7.0 0.0 0.00 0.00 0.00 59 1010.6
20260901124502 58 184 1.0 0.0 0.00 0.00 0.00 59 1010.6
20260901123002 58 184 4.0 0.0 0.00 0.00 0.00 59 1010.6
20260901121502 59 180 2.0 0.0 0.00 0.00 0.00 59 1010.6
20260901120003 60 180 3.0 0.0 0.00 0.00 0.00 59 1010.6
20260901114502 65 180 5.0 0.0 0.00 0.00 0.00 59 1010.6
20260901113002 64 180 1.0 0.0 0.00 0.00 0.00 59 1010.6
20260901111502 58 180 1.0 0.0 0.00 0.00 0.00 59 1010.6
20260901110002 59 180 1.0 0.0 0.00 0.00 0.00 59 1010.6
20260901104502 67 252 3.0 0.0 0.00 0.00 0.00 59 1010.6
20260901103002 70 252 3.0 0.0 0.00 0.00 0.00 59 1010.6
20260901101502 71 252 5.0 0.0 0.00 0.00 0.00 59 1010.6
20260901100003 68 252 5.0 0.0 0.00 0.00 0.00 59 1010.6